When you browse on this site, cookies collect data to enhance your experience and personalize the content and advertising you see.
Visit our Privacy Policy to learn more. By continuing to use the site, you agree to this use of cookies and data.
  • En España
  • Lista de países
  • Para 7 días
  • Temperatura del agua
  • Mapa Satelital
  • El tiempo en el mapa
  • Informadores
  • user-avatar
    Iniciar sesión

    Tiempo cada hora Lucknow

    Hoy, 17 Febrero, Domingo

    Tiempo Temperatura Precipitaciones Viento Presión Humedad
    00:00 +14°C° 0 mm 3 mps 748 mmHg 93%
    01:00 +14°C° 0 mm 3 mps 747 mmHg 94%
    02:00 +13°C° 0 mm 3 mps 747 mmHg 94%
    03:00 +13°C° 0 mm 3 mps 747 mmHg 95%
    04:00 +13°C° 0 mm 3 mps 746 mmHg 95%
    05:00 +13°C° 0 mm 3 mps 746 mmHg 95%
    06:00 +13°C° 0 mm 4 mps 746 mmHg 92%
    07:00 +14°C° 0 mm 4 mps 747 mmHg 88%
    08:00 +15°C° 0 mm 4 mps 747 mmHg 84%
    09:00 +18°C° 0 mm 4 mps 748 mmHg 76%
    10:00 +20°C° 0 mm 5 mps 748 mmHg 67%
    11:00 +23°C° 0 mm 4 mps 749 mmHg 57%
    12:00 +23°C° 0 mm 4 mps 748 mmHg 55%
    13:00 +23°C° 0 mm 5 mps 747 mmHg 52%
    14:00 +25°C° 0 mm 5 mps 746 mmHg 49%
    15:00 +23°C° 0 mm 4 mps 746 mmHg 53%
    16:00 +22°C° 0 mm 4 mps 746 mmHg 58%
    17:00 +20°C° 0 mm 3 mps 745 mmHg 62%
    18:00 +19°C° 0 mm 3 mps 745 mmHg 63%
    19:00 +18°C° 0 mm 3 mps 746 mmHg 65%
    20:00 +17°C° 0 mm 3 mps 746 mmHg 66%
    21:00 +17°C° 0 mm 3 mps 746 mmHg 67%
    22:00 +16°C° 0 mm 3 mps 746 mmHg 68%
    23:00 +16°C° 0 mm 2 mps 745 mmHg 69%

    Mañana, 18 Febrero, Lunes

    Tiempo Temperatura Precipitaciones Viento Presión Humedad
    00:00 +14°C° 0 mm 3 mps 745 mmHg 70%
    01:00 +14°C° 0 mm 3 mps 745 mmHg 72%
    02:00 +14°C° 0 mm 3 mps 745 mmHg 73%
    03:00 +14°C° 0 mm 2 mps 745 mmHg 74%
    04:00 +14°C° 0 mm 2 mps 745 mmHg 75%
    05:00 +14°C° 0 mm 2 mps 745 mmHg 75%
    06:00 +15°C° 0 mm 2 mps 745 mmHg 73%
    07:00 +16°C° 0 mm 2 mps 746 mmHg 71%
    08:00 +17°C° 0 mm 3 mps 747 mmHg 69%
    09:00 +19°C° 0 mm 3 mps 747 mmHg 62%
    10:00 +21°C° 0 mm 3 mps 747 mmHg 54%
    11:00 +23°C° 0 mm 4 mps 748 mmHg 47%
    12:00 +23°C° 0 mm 4 mps 747 mmHg 48%
    13:00 +23°C° 0 mm 4 mps 746 mmHg 50%
    14:00 +24°C° 0 mm 3 mps 746 mmHg 51%
    15:00 +22°C° 0 mm 3 mps 745 mmHg 54%
    16:00 +21°C° 0 mm 3 mps 745 mmHg 57%
    17:00 +21°C° 0 mm 2 mps 745 mmHg 60%
    18:00 +20°C° 0 mm 2 mps 745 mmHg 58%
    19:00 +20°C° 0 mm 1 mps 745 mmHg 57%
    20:00 +20°C° 0 mm 1 mps 746 mmHg 55%
    21:00 +20°C° 0 mm 1 mps 746 mmHg 53%
    22:00 +20°C° 0 mm 1 mps 746 mmHg 52%
    23:00 +20°C° 0 mm 1 mps 747 mmHg 51%

    Pasado mañana, 19 Febrero, Martes

    Tiempo Temperatura Precipitaciones Viento Presión Humedad
    00:00 +20°C° 0 mm 1 mps 746 mmHg 51%
    01:00 +19°C° 0 mm 2 mps 746 mmHg 51%
    02:00 +19°C° 0 mm 2 mps 746 mmHg 51%
    03:00 +18°C° 0 mm 2 mps 746 mmHg 54%
    04:00 +18°C° 0 mm 2 mps 746 mmHg 58%
    05:00 +17°C° 0 mm 2 mps 746 mmHg 61%
    06:00 +18°C° 0 mm 2 mps 747 mmHg 63%
    07:00 +18°C° 0 mm 2 mps 748 mmHg 65%
    08:00 +18°C° 0 mm 2 mps 749 mmHg 67%
    09:00 +20°C° 0 mm 3 mps 749 mmHg 60%
    10:00 +24°C° 0 mm 3 mps 749 mmHg 53%
    11:00 +26°C° 0 mm 4 mps 750 mmHg 46%
    12:00 +27°C° 0 mm 3 mps 749 mmHg 43%
    13:00 +27°C° 0 mm 2 mps 749 mmHg 41%
    14:00 +28°C° 0 mm 2 mps 748 mmHg 38%
    15:00 +27°C° 0 mm 2 mps 748 mmHg 43%
    16:00 +26°C° 0 mm 1 mps 748 mmHg 47%
    17:00 +25°C° 0 mm 1 mps 748 mmHg 51%
    18:00 +24°C° 0 mm 1 mps 748 mmHg 53%
    19:00 +23°C° 0 mm 2 mps 749 mmHg 56%
    20:00 +20°C° 0 mm 2 mps 749 mmHg 58%
    21:00 +20°C° 0 mm 2 mps 749 mmHg 59%
    22:00 +20°C° 0 mm 3 mps 749 mmHg 61%
    23:00 +19°C° 0 mm 3 mps 749 mmHg 63%

    20 Febrero, Miércoles

    Tiempo Temperatura Precipitaciones Viento Presión Humedad
    00:00 +19°C° 0 mm 2 mps 748 mmHg 64%
    01:00 +18°C° 0 mm 2 mps 748 mmHg 66%
    02:00 +19°C° 0 mm 1 mps 748 mmHg 68%
    03:00 +18°C° 0 mm 1 mps 748 mmHg 68%
    04:00 +18°C° 0 mm 1 mps 748 mmHg 69%
    05:00 +18°C° 0 mm 1 mps 748 mmHg 70%
    06:00 +19°C° 0 mm 1 mps 748 mmHg 67%
    07:00 +20°C° 0 mm 1 mps 749 mmHg 63%
    08:00 +21°C° 0 mm 1 mps 749 mmHg 59%
    09:00 +23°C° 0 mm 1 mps 750 mmHg 54%
    10:00 +25°C° 0 mm 2 mps 751 mmHg 48%
    11:00 +27°C° 0 mm 2 mps 752 mmHg 43%
    12:00 +27°C° 0 mm 3 mps 751 mmHg 46%
    13:00 +27°C° 0 mm 3 mps 751 mmHg 50%
    14:00 +26°C° 0 mm 3 mps 750 mmHg 54%
    15:00 +25°C° 0 mm 3 mps 750 mmHg 58%
    16:00 +24°C° 0 mm 3 mps 750 mmHg 62%
    17:00 +24°C° 0 mm 3 mps 750 mmHg 66%
    18:00 +23°C° 0 mm 2 mps 750 mmHg 64%
    19:00 +21°C° 0 mm 2 mps 750 mmHg 63%
    20:00 +21°C° 0 mm 1 mps 751 mmHg 61%
    21:00 +19°C° 0 mm 2 mps 751 mmHg 58%
    22:00 +19°C° 0 mm 2 mps 750 mmHg 55%
    23:00 +18°C° 0 mm 2 mps 750 mmHg 52%

    21 Febrero, Jueves

    Tiempo Temperatura Precipitaciones Viento Presión Humedad
    00:00 +18°C° 0 mm 2 mps 750 mmHg 51%
    01:00 +18°C° 0 mm 2 mps 749 mmHg 49%
    02:00 +17°C° 0 mm 2 mps 749 mmHg 48%
    03:00 +18°C° 0 mm 1 mps 749 mmHg 49%
    04:00 +18°C° 0 mm 1 mps 749 mmHg 50%
    05:00 +18°C° 0 mm 1 mps 749 mmHg 52%
    06:00 +19°C° 0 mm 1 mps 750 mmHg 50%
    07:00 +20°C° 0 mm 1 mps 751 mmHg 49%
    08:00 +22°C° 0 mm 1 mps 752 mmHg 48%
    09:00 +24°C° 0 mm 1 mps 752 mmHg 44%
    10:00 +27°C° 0 mm 1 mps 752 mmHg 39%
    11:00 +27°C° 0 mm 0 mps 752 mmHg 35%
    12:00 +30°C° 0 mm 1 mps 751 mmHg 33%
    13:00 +31°C° 0 mm 1 mps 750 mmHg 31%
    14:00 +32°C° 0 mm 1 mps 749 mmHg 29%
    15:00 +31°C° 0 mm 1 mps 748 mmHg 34%
    16:00 +29°C° 0 mm 1 mps 748 mmHg 38%
    17:00 +28°C° 0 mm 2 mps 748 mmHg 42%
    18:00 +27°C° 0 mm 2 mps 748 mmHg 42%
    19:00 +25°C° 0 mm 2 mps 749 mmHg 43%
    20:00 +24°C° 0 mm 2 mps 749 mmHg 43%
    21:00 +24°C° 0 mm 2 mps 749 mmHg 45%
    22:00 +23°C° 0 mm 2 mps 749 mmHg 47%
    23:00 +21°C° 0 mm 2 mps 749 mmHg 48%

    22 Febrero, Viernes

    Tiempo Temperatura Precipitaciones Viento Presión Humedad
    00:00 +21°C° 0 mm 2 mps 748 mmHg 49%
    01:00 +20°C° 0 mm 2 mps 748 mmHg 50%
    02:00 +20°C° 0 mm 2 mps 748 mmHg 50%
    03:00 +21°C° 0 mm 1 mps 747 mmHg 48%
    04:00 +21°C° 0 mm 1 mps 747 mmHg 46%
    05:00 +19°C° 0 mm 0 mps 747 mmHg 44%
    06:00 +22°C° 0 mm 1 mps 748 mmHg 44%
    07:00 +23°C° 0 mm 1 mps 749 mmHg 44%
    08:00 +24°C° 0 mm 1 mps 749 mmHg 45%
    09:00 +26°C° 0 mm 2 mps 749 mmHg 41%
    10:00 +28°C° 0 mm 2 mps 749 mmHg 37%
    11:00 +30°C° 0 mm 3 mps 749 mmHg 33%
    12:00 +31°C° 0 mm 3 mps 748 mmHg 32%
    13:00 +33°C° 0 mm 3 mps 748 mmHg 31%
    14:00 +33°C° 0 mm 3 mps 747 mmHg 30%
    15:00 +31°C° 0 mm 2 mps 746 mmHg 34%
    16:00 +30°C° 0 mm 2 mps 746 mmHg 39%
    17:00 +28°C° 0 mm 2 mps 746 mmHg 43%
    18:00 +27°C° 0 mm 2 mps 746 mmHg 44%
    19:00 +26°C° 0 mm 2 mps 746 mmHg 46%
    20:00 +24°C° 0 mm 2 mps 746 mmHg 47%
    21:00 +24°C° 0 mm 2 mps 746 mmHg 48%
    22:00 +23°C° 0 mm 2 mps 746 mmHg 49%
    23:00 +23°C° 0 mm 2 mps 746 mmHg 51%
    Mostrar más